Zurück zum Katalog

CZ-6A DEB

AktivPO
NORAD 60764·DEBRIS·🇨🇳 China

Gestartet Aug 6, 2024 von Taiyuan Satellite Launch Center

Loading…

Nächste Überflüge (nächste 24 Stunden)

TLE

AktuellSource: Space-Track

Epoche: Sep 14, 2026, 07:50 UTC

1 60764U 24140EP  26257.32650372  .00000229  00000-0  87973-4 0  9995
2 60764  88.9426 258.7523 0019298 165.2387 194.9375 14.26877638108789

Verfolge CZ-6A DEB in Echtzeit mit AllMySat

Download on the App Store